Track KAZEOSAT 2 now! 10-day predictions KAZEOSAT 2 is classified as:
1 40010U 14033A 21024.79331950 .00000018 00000-0 87962-5 0 9998 2 40010 97.7844 280.8687 0014772 304.8965 55.0861 14.82090230357101